AirNav   ProFlight Series 2 Aviation Headset
 
 1275 users online  

05XS Johnson Memorial Airport
Wilmot, Arkansas, USA

GOING TO WILMOT?


FAA INFORMATION EFFECTIVE 18 JUNE 2020

Location

FAA Identifier: 05XS
Lat/Long: 33-04-42.6000N 091-33-42.6000W
33-04.710000N 091-33.710000W
33.0785000,-91.5618333
(estimated)
Elevation: 105 ft. / 32 m (estimated)
Variation: 03E (1990)
From city: 1 mile N of WILMOT, AR
Time zone: UTC -5 (UTC -6 during Standard Time)
Zip code: 71676

Airport Operations

Airport use: Private use. Permission required prior to landing
Activation date: 06/1993
Control tower: no
ARTCC: MEMPHIS CENTER
FSS: JONESBORO FLIGHT SERVICE STATION
Attendance: UNATNDD
Segmented circle: no

Nearby radio navigation aids

VOR radial/distance  VOR name  Freq  Var
MONr161/30.0MONTICELLO VOR/DME111.6004E
GLHr223/39.4GREENVILLE VOR/DME114.2504E

 
NDB name  Hdg/Dist  Freq  Var  ID
BASTROP037/25.332903EBQP -... --.- .--.
METCALF235/35.835901WMTQ -- - --.-

Airport Services

Runway Information

Runway 2/20

Dimensions: 2600 x 100 ft. / 792 x 30 m
Surface: turf
RUNWAY 2  RUNWAY 20
Traffic pattern: leftleft
Obstructions: 50 ft. trees, 100 ft. from runway50 ft. trees, 100 ft. from runway

Airport Ownership and Management from official FAA records

Ownership: Privately-owned
Owner: NELDA B. JOHNSON TRUST
PO BOX 295
WILMOT, AR 71676
Phone 870-473-5548
WM. L. JOHNSON FAMILY TRUST.
Manager: JAMES W. JOHNSON
PO BOX 295
WILMOT, AR 71676
Phone 870-473-5548

Airport Operational Statistics

Aircraft based on the field: 2
Single engine airplanes: 2
    

Additional Remarks

FOR CD CTC MEMPHIS ARTCC AT 901-368-8453.

Instrument Procedures

There are no published instrument procedures at 05XS.

Some nearby airports with instrument procedures:

KCRT - Z M Jack Stell Field Airport (17 nm W)
M32 - Lake Village Municipal Airport (20 nm NE)
KBQP - Morehouse Memorial Airport (25 nm SW)
7M1 - Mc Gehee Municipal Airport (34 nm N)
KLLQ - Monticello Municipal Airport/Ellis Field (35 nm N)
 
Loc | Ops | Rwys | IFR | FBO | Links
Com | Nav | Svcs | Stats | Notes
Area around 05XS (Johnson Memorial Airport)
 
Road maps at: MapQuest Bing Google
 
Aerial photo
No photo
 
Sectional chart

 
Airport distance calculator
Flying to Johnson Memorial Airport? Find the distance to fly.

From to 05XS

Sunrise and sunset
Times for 02-Jul-2020
 Local
(UTC-5)
 Zulu
(UTC)
Morning civil twilight05:3410:34
Sunrise06:0311:03
Sunset20:1801:18
Evening civil twilight20:4701:47

Current date and time
Zulu (UTC)  02-Jul-2020 17:19:16
Local (UTC-5)  02-Jul-2020 12:19:16
 
METAR
KBQP 
25nm SW 
021655Z AUTO 00000KT 7SM BKN021 OVC065 31/25 A3000 RMK AO2 T03050253 TSNO
KLLQ 
35nm N 
021653Z AUTO VRB04KT 10SM SCT023 SCT032 32/26 A2997 RMK AO2 SLP144 T03220256
KGLH 
38nm NE 
021653Z 27007KT 10SM FEW026 SCT035 33/24 A2997 RMK AO2 SLP151 T03280244
KMLU 
41nm SW 
021653Z 26007KT 9SM SCT024 SCT029 BKN035 31/25 A3000 RMK AO2 SLP156 T03110250
TAF
KLLQ 
35nm N 
021120Z 0212/0312 VRB03KT P6SM SCT025 BKN040 TEMPO 0212/0213 BKN025 FM021900 25006KT P6SM VCTS BKN050CB BKN250
KGLH 
38nm NE 
021120Z 0212/0312 19003KT P6SM SKC FM021900 28007KT P6SM VCTS SCT050CB FM030200 VRB04KT P6SM SCT050
KMLU 
41nm SW 
021137Z 0212/0312 24003KT P6SM SKC TEMPO 0212/0215 6SM BR BKN025 FM021500 26005KT P6SM BKN025 FM021700 25006KT P6SM SCT050 SCT250 FM022100 24005KT P6SM VCTS SCT050CB BKN250 FM030100 00000KT P6SM FEW250
NOTAMs
Click for the latest NOTAMs
NOTAMs are issued by the DoD/FAA and will open in a separate window not controlled by AirNav.

 

 
 

Would you like to see your business listed on this page?

 If your business provides an interesting product or service to pilots, flight crews, aircraft, or users of the Johnson Memorial Airport, you should consider listing it here.  To start the listing process, click on the button below
 
Add a business
 

Other Pages about Johnson Memorial Airport

Update a link
 
Copyright © AirNav, LLC. All rights reserved. Privacy Policy  Contact